LA METEO DE GRANDFRESNOY - OISE - (60) - ALT.75 m
Donnes mto: Actuelle mardi, 21/11/2017 03:17
Date Horaire Temp. E. Hum. E. P.atmo. Pluie Vent Direction Direction Ensoleilleme Horaire Temp Ev.Tr. UV Ray;solaire P. de rose Temp au vent Rafales Rception
21/11/2017 03:17 9,6 C 94 % 1017,7 hPa 0,0 mm 15,9 km/h (3 Bft) S-SO 212 0 min 0 min 0,000 mm 0,0 UV-I 0 W/m 8,7 C 4,3 C 24,8 km/h (4 Bft) 95,83 %
21/11/2017 03:16 9,6 C 94 % 1017,7 hPa 0,0 mm 15,3 km/h (3 Bft) SO 218 0 min 0 min 0,000 mm 0,0 UV-I 0 W/m 8,7 C 4,5 C 21,2 km/h (4 Bft) 100,00 %
21/11/2017 03:15 9,6 C 94 % 1017,7 hPa 0,0 mm 18,0 km/h (3 Bft) O-SO 246 0 min 0 min 0,000 mm 0,0 UV-I 0 W/m 8,7 C 3,5 C 26,6 km/h (4 Bft) 100,00 %
21/11/2017 03:14 9,6 C 94 % 1017,6 hPa 0,0 mm 11,1 km/h (2 Bft) SO 227 0 min 0 min 0,000 mm 0,0 UV-I 0 W/m 8,7 C 6,5 C 21,2 km/h (4 Bft) 96,30 %
21/11/2017 03:13 9,6 C 93 % 1017,6 hPa 0,0 mm 6,5 km/h (2 Bft) O-SO 253 0 min 0 min 0,000 mm 0,0 UV-I 0 W/m 8,5 C 9,6 C 12,4 km/h (2 Bft) 91,30 %
21/11/2017 03:12 9,6 C 93 % 1017,6 hPa 0,0 mm 14,3 km/h (3 Bft) SO 230 0 min 0 min 0,000 mm 0,0 UV-I 0 W/m 8,5 C 5,0 C 21,2 km/h (4 Bft) 100,00 %
21/11/2017 03:11 9,6 C 93 % 1017,7 hPa 0,0 mm 13,8 km/h (3 Bft) SO 229 0 min 0 min 0,000 mm 0,0 UV-I 0 W/m 8,5 C 5,2 C 23,0 km/h (4 Bft) 92,86 %
21/11/2017 03:10 9,6 C 93 % 1017,6 hPa 0,0 mm 14,2 km/h (3 Bft) SO 221 0 min 0 min 0,000 mm 0,0 UV-I 0 W/m 8,5 C 5,0 C 23,0 km/h (4 Bft) 100,00 %
21/11/2017 03:09 9,6 C 93 % 1017,6 hPa 0,0 mm 13,9 km/h (3 Bft) O-SO 238 0 min 0 min 0,000 mm 0,0 UV-I 0 W/m 8,5 C 5,1 C 21,2 km/h (4 Bft) 96,15 %
21/11/2017 03:08 9,6 C 93 % 1017,6 hPa 0,0 mm 9,3 km/h (2 Bft) S-SO 205 0 min 0 min 0,000 mm 0,0 UV-I 0 W/m 8,5 C 7,6 C 14,2 km/h (3 Bft) 96,15 %
21/11/2017 03:07 9,6 C 93 % 1017,6 hPa 0,0 mm 15,6 km/h (3 Bft) O-SO 254 0 min 0 min 0,000 mm 0,0 UV-I 0 W/m 8,5 C 4,4 C 21,2 km/h (4 Bft) 95,83 %
21/11/2017 03:06 9,6 C 93 % 1017,6 hPa 0,0 mm 12,7 km/h (3 Bft) S-SO 205 0 min 0 min 0,000 mm 0,0 UV-I 0 W/m 8,5 C 5,7 C 19,5 km/h (3 Bft) 95,65 %
21/11/2017 03:05 9,6 C 93 % 1017,6 hPa 0,0 mm 17,7 km/h (3 Bft) SO 215 0 min 0 min 0,000 mm 0,0 UV-I 0 W/m 8,5 C 3,6 C 24,8 km/h (4 Bft) 100,00 %
21/11/2017 03:04 9,6 C 93 % 1017,6 hPa 0,0 mm 16,4 km/h (3 Bft) SO 225 0 min 0 min 0,000 mm 0,0 UV-I 0 W/m 8,5 C 4,1 C 28,3 km/h (5 Bft) 95,65 %
21/11/2017 03:03 9,6 C 93 % 1017,7 hPa 0,0 mm 14,5 km/h (3 Bft) SO 226 0 min 0 min 0,000 mm 0,0 UV-I 0 W/m 8,5 C 4,9 C 21,2 km/h (4 Bft) 95,65 %
21/11/2017 03:02 9,7 C 93 % 1017,7 hPa 0,0 mm 12,2 km/h (2 Bft) SO 217 0 min 0 min 0,000 mm 0,0 UV-I 0 W/m 8,6 C 6,1 C 19,5 km/h (3 Bft) 92,31 %
21/11/2017 03:01 9,7 C 93 % 1017,6 hPa 0,0 mm 12,9 km/h (3 Bft) O-SO 239 0 min 0 min 0,000 mm 0,0 UV-I 0 W/m 8,6 C 5,7 C 24,8 km/h (4 Bft) 100,00 %
21/11/2017 03:00 9,7 C 93 % 1017,7 hPa 0,0 mm 10,0 km/h (2 Bft) O-SO 248 0 min 0 min 0,025 mm 0,0 UV-I 0 W/m 8,6 C 7,3 C 21,2 km/h (4 Bft) 95,65 %
21/11/2017 02:59 9,7 C 93 % 1017,7 hPa 0,0 mm 10,4 km/h (2 Bft) SO 228 0 min 0 min 0,000 mm 0,0 UV-I 0 W/m 8,6 C 7,0 C 15,9 km/h (3 Bft) 95,83 %
21/11/2017 02:58 9,7 C 93 % 1017,6 hPa 0,0 mm 9,3 km/h (2 Bft) SO 216 0 min 0 min 0,000 mm 0,0 UV-I 0 W/m 8,6 C 7,7 C 17,7 km/h (3 Bft) 96,00 %
21/11/2017 02:57 9,7 C 93 % 1017,6 hPa 0,0 mm 12,5 km/h (2 Bft) SO 224 0 min 0 min 0,000 mm 0,0 UV-I 0 W/m 8,6 C 5,9 C 19,5 km/h (3 Bft) 95,83 %
21/11/2017 02:56 9,7 C 93 % 1017,6 hPa 0,0 mm 16,9 km/h (3 Bft) SO 227 0 min 0 min 0,000 mm 0,0 UV-I 0 W/m 8,6 C 4,0 C 26,6 km/h (4 Bft) 96,30 %
21/11/2017 02:55 9,7 C 93 % 1017,6 hPa 0,0 mm 7,0 km/h (2 Bft) SO 217 0 min 0 min 0,000 mm 0,0 UV-I 0 W/m 8,6 C 9,3 C 12,4 km/h (2 Bft) 95,12 %
21/11/2017 02:53 9,7 C 93 % 1017,5 hPa 0,0 mm 10,5 km/h (2 Bft) SO 225 0 min 0 min 0,000 mm 0,0 UV-I 0 W/m 8,6 C 7,0 C 14,2 km/h (3 Bft) 96,77 %
21/11/2017 02:52 9,8 C 93 % 1017,5 hPa 0,0 mm 11,6 km/h (2 Bft) SO 225 0 min 0 min 0,000 mm 0,0 UV-I 0 W/m 8,7 C 6,5 C 15,9 km/h (3 Bft) 100,00 %
21/11/2017 02:51 9,8 C 93 % 1017,6 hPa 0,0 mm 9,9 km/h (2 Bft) O 262 0 min 0 min 0,000 mm 0,0 UV-I 0 W/m 8,7 C 7,4 C 19,5 km/h (3 Bft) 93,33 %
21/11/2017 02:50 9,8 C 93 % 1017,5 hPa 0,0 mm 15,5 km/h (3 Bft) O-SO 257 0 min 0 min 0,000 mm 0,0 UV-I 0 W/m 8,7 C 4,7 C 23,0 km/h (4 Bft) 96,55 %
21/11/2017 02:49 9,8 C 93 % 1017,5 hPa 0,0 mm 15,7 km/h (3 Bft) O-SO 255 0 min 0 min 0,000 mm 0,0 UV-I 0 W/m 8,7 C 4,6 C 23,0 km/h (4 Bft) 100,00 %
21/11/2017 02:48 9,8 C 93 % 1017,5 hPa 0,0 mm 13,4 km/h (3 Bft) O-SO 253 0 min 0 min 0,000 mm 0,0 UV-I 0 W/m 8,7 C 5,6 C 23,0 km/h (4 Bft) 96,00 %
21/11/2017 02:47 9,8 C 93 % 1017,5 hPa 0,0 mm 7,4 km/h (2 Bft) SO 234 0 min 0 min 0,000 mm 0,0 UV-I 0 W/m 8,7 C 9,1 C 19,5 km/h (3 Bft) 95,65 %
21/11/2017 02:46 9,8 C 93 % 1017,5 hPa 0,0 mm 8,0 km/h (2 Bft) O-SO 246 0 min 0 min 0,000 mm 0,0 UV-I 0 W/m 8,7 C 8,6 C 21,2 km/h (4 Bft) 96,00 %
21/11/2017 02:45 9,8 C 93 % 1017,5 hPa 0,0 mm 14,0 km/h (3 Bft) O-SO 252 0 min 0 min 0,000 mm 0,0 UV-I 0 W/m 8,7 C 5,3 C 19,5 km/h (3 Bft) 96,15 %
21/11/2017 02:44 9,8 C 93 % 1017,6 hPa 0,0 mm 9,8 km/h (2 Bft) O-SO 248 0 min 0 min 0,000 mm 0,0 UV-I 0 W/m 8,7 C 7,5 C 15,9 km/h (3 Bft) 95,83 %
21/11/2017 02:43 9,8 C 93 % 1017,5 hPa 0,0 mm 5,6 km/h (2 Bft) SO 235 0 min 0 min 0,000 mm 0,0 UV-I 0 W/m 8,7 C 9,8 C 12,4 km/h (2 Bft) 100,00 %
21/11/2017 02:42 9,8 C 93 % 1017,6 hPa 0,0 mm 10,6 km/h (2 Bft) S-SO 212 0 min 0 min 0,000 mm 0,0 UV-I 0 W/m 8,7 C 7,0 C 21,2 km/h (4 Bft) 95,65 %
21/11/2017 02:41 9,9 C 93 % 1017,6 hPa 0,0 mm 9,5 km/h (2 Bft) SO 224 0 min 0 min 0,000 mm 0,0 UV-I 0 W/m 8,8 C 7,8 C 14,2 km/h (3 Bft) 100,00 %
21/11/2017 02:40 9,9 C 93 % 1017,6 hPa 0,0 mm 9,6 km/h (2 Bft) SO 230 0 min 0 min 0,000 mm 0,0 UV-I 0 W/m 8,8 C 7,7 C 14,2 km/h (3 Bft) 95,65 %
21/11/2017 02:39 9,9 C 93 % 1017,6 hPa 0,0 mm 12,1 km/h (2 Bft) O 261 0 min 0 min 0,000 mm 0,0 UV-I 0 W/m 8,8 C 6,3 C 19,5 km/h (3 Bft) 95,83 %
21/11/2017 02:38 9,9 C 93 % 1017,6 hPa 0,0 mm 8,5 km/h (2 Bft) S-SO 209 0 min 0 min 0,000 mm 0,0 UV-I 0 W/m 8,8 C 8,4 C 14,2 km/h (3 Bft) 100,00 %
21/11/2017 02:37 9,9 C 93 % 1017,5 hPa 0,0 mm 8,3 km/h (2 Bft) SO 216 0 min 0 min 0,000 mm 0,0 UV-I 0 W/m 8,8 C 8,5 C 14,2 km/h (3 Bft) 95,65 %
21/11/2017 02:36 9,9 C 93 % 1017,5 hPa 0,0 mm 8,3 km/h (2 Bft) O-SO 240 0 min 0 min 0,000 mm 0,0 UV-I 0 W/m 8,8 C 8,5 C 14,2 km/h (3 Bft) 100,00 %
21/11/2017 02:35 9,9 C 93 % 1017,5 hPa 0,0 mm 12,1 km/h (2 Bft) S-SO 194 0 min 0 min 0,000 mm 0,0 UV-I 0 W/m 8,8 C 6,3 C 15,9 km/h (3 Bft) 100,00 %
21/11/2017 02:34 9,9 C 93 % 1017,5 hPa 0,0 mm 11,0 km/h (2 Bft) O-SO 245 0 min 0 min 0,000 mm 0,0 UV-I 0 W/m 8,8 C 6,9 C 21,2 km/h (4 Bft) 100,00 %
21/11/2017 02:33 9,9 C 93 % 1017,5 hPa 0,0 mm 12,4 km/h (2 Bft) SO 227 0 min 0 min 0,000 mm 0,0 UV-I 0 W/m 8,8 C 6,2 C 21,2 km/h (4 Bft) 96,15 %
21/11/2017 02:32 9,9 C 93 % 1017,5 hPa 0,0 mm 8,1 km/h (2 Bft) S-SO 205 0 min 0 min 0,000 mm 0,0 UV-I 0 W/m 8,8 C 8,7 C 15,9 km/h (3 Bft) 100,00 %
21/11/2017 02:31 9,9 C 93 % 1017,5 hPa 0,0 mm 12,2 km/h (2 Bft) SO 235 0 min 0 min 0,000 mm 0,0 UV-I 0 W/m 8,8 C 6,3 C 17,7 km/h (3 Bft) 100,00 %
21/11/2017 02:30 9,9 C 93 % 1017,5 hPa 0,0 mm 8,0 km/h (2 Bft) O-SO 246 0 min 0 min 0,000 mm 0,0 UV-I 0 W/m 8,8 C 8,7 C 12,4 km/h (2 Bft) 96,15 %
21/11/2017 02:29 9,9 C 93 % 1017,5 hPa 0,0 mm 9,8 km/h (2 Bft) O-SO 242 0 min 0 min 0,000 mm 0,0 UV-I 0 W/m 8,8 C 7,6 C 14,2 km/h (3 Bft) 100,00 %
21/11/2017 02:28 9,9 C 93 % 1017,5 hPa 0,0 mm 7,4 km/h (2 Bft) S-SO 198 0 min 0 min 0,000 mm 0,0 UV-I 0 W/m 8,8 C 9,2 C 14,2 km/h (3 Bft) 100,00 %
21/11/2017 02:27 9,9 C 93 % 1017,5 hPa 0,0 mm 6,4 km/h (2 Bft) O-SO 254 0 min 0 min 0,000 mm 0,0 UV-I 0 W/m 8,8 C 9,9 C 10,6 km/h (2 Bft) 100,00 %
21/11/2017 02:26 9,9 C 93 % 1017,5 hPa 0,0 mm 7,8 km/h (2 Bft) S-SO 203 0 min 0 min 0,000 mm 0,0 UV-I 0 W/m 8,8 C 8,9 C 12,4 km/h (2 Bft) 100,00 %
21/11/2017 02:25 9,9 C 93 % 1017,5 hPa 0,0 mm 11,2 km/h (2 Bft) O-SO 250 0 min 0 min 0,000 mm 0,0 UV-I 0 W/m 8,8 C 6,8 C 14,2 km/h (3 Bft) 100,00 %
21/11/2017 02:24 9,9 C 93 % 1017,5 hPa 0,0 mm 13,4 km/h (3 Bft) S 190 0 min 0 min 0,000 mm 0,0 UV-I 0 W/m 8,8 C 5,7 C 19,5 km/h (3 Bft) 98,18 %
21/11/2017 02:22 9,9 C 93 % 1017,5 hPa 0,0 mm 16,2 km/h (3 Bft) SO 228 0 min 0 min 0,000 mm 0,0 UV-I 0 W/m 8,8 C 4,5 C 23,0 km/h (4 Bft) 100,00 %
21/11/2017 02:21 9,9 C 93 % 1017,5 hPa 0,0 mm 7,3 km/h (2 Bft) S-SO 207 0 min 0 min 0,000 mm 0,0 UV-I 0 W/m 8,8 C 9,2 C 15,9 km/h (3 Bft) 100,00 %
21/11/2017 02:20 9,9 C 93 % 1017,5 hPa 0,0 mm 8,8 km/h (2 Bft) O-SO 239 0 min 0 min 0,000 mm 0,0 UV-I 0 W/m 8,8 C 8,2 C 19,5 km/h (3 Bft) 100,00 %
21/11/2017 02:19 9,9 C 93 % 1017,5 hPa 0,0 mm 6,9 km/h (2 Bft) SO 227 0 min 0 min 0,000 mm 0,0 UV-I 0 W/m 8,8 C 9,5 C 10,6 km/h (2 Bft) 96,15 %
21/11/2017 02:18 9,9 C 93 % 1017,5 hPa 0,0 mm 9,4 km/h (2 Bft) SO 229 0 min 0 min 0,000 mm 0,0 UV-I 0 W/m 8,8 C 7,8 C 14,2 km/h (3 Bft) 100,00 %
21/11/2017 02:17 9,9 C 93 % 1017,5 hPa 0,0 mm 12,8 km/h (3 Bft) SO 225 0 min 0 min 0,000 mm 0,0 UV-I 0 W/m 8,8 C 6,0 C 19,5 km/h (3 Bft) 100,00 %
21/11/2017 02:16 9,9 C 93 % 1017,5 hPa 0,0 mm 13,9 km/h (3 Bft) SO 223 0 min 0 min 0,000 mm 0,0 UV-I 0 W/m 8,8 C 5,5 C 24,8 km/h (4 Bft) 100,00 %
21/11/2017 02:15 9,9 C 93 % 1017,6 hPa 0,0 mm 10,4 km/h (2 Bft) S-SE 163 0 min 0 min 0,000 mm 0,0 UV-I 0 W/m 8,8 C 7,3 C 15,9 km/h (3 Bft) 100,00 %
21/11/2017 02:14 9,9 C 93 % 1017,6 hPa 0,0 mm 6,2 km/h (2 Bft) SO 229 0 min 0 min 0,000 mm 0,0 UV-I 0 W/m 8,8 C 9,9 C 8,9 km/h (2 Bft) 100,00 %
21/11/2017 02:13 9,9 C 93 % 1017,6 hPa 0,0 mm 12,3 km/h (2 Bft) S-SO 205 0 min 0 min 0,000 mm 0,0 UV-I 0 W/m 8,8 C 6,2 C 21,2 km/h (4 Bft) 100,00 %
21/11/2017 02:12 9,9 C 93 % 1017,7 hPa 0,0 mm 6,8 km/h (2 Bft) O-SO 250 0 min 0 min 0,000 mm 0,0 UV-I 0 W/m 8,8 C 9,6 C 12,4 km/h (2 Bft) 100,00 %
21/11/2017 02:11 9,9 C 93 % 1017,6 hPa 0,0 mm 8,1 km/h (2 Bft) O-SO 244 0 min 0 min 0,000 mm 0,0 UV-I 0 W/m 8,8 C 8,7 C 12,4 km/h (2 Bft) 97,56 %
21/11/2017 02:10 9,9 C 93 % 1017,6 hPa 0,0 mm 10,1 km/h (2 Bft) SO 214 0 min 0 min 0,000 mm 0,0 UV-I 0 W/m 8,8 C 7,4 C 15,9 km/h (3 Bft) 100,00 %
21/11/2017 02:09 9,9 C 93 % 1017,7 hPa 0,0 mm 13,0 km/h (3 Bft) O-SO 238 0 min 0 min 0,000 mm 0,0 UV-I 0 W/m 8,8 C 5,9 C 17,7 km/h (3 Bft) 100,00 %
21/11/2017 02:08 9,9 C 93 % 1017,6 hPa 0,0 mm 7,4 km/h (2 Bft) SO 227 0 min 0 min 0,000 mm 0,0 UV-I 0 W/m 8,8 C 9,2 C 12,4 km/h (2 Bft) 100,00 %
21/11/2017 02:07 9,9 C 93 % 1017,6 hPa 0,0 mm 9,3 km/h (2 Bft) O-SO 240 0 min 0 min 0,000 mm 0,0 UV-I 0 W/m 8,8 C 7,9 C 15,9 km/h (3 Bft) 96,15 %
21/11/2017 02:06 9,9 C 93 % 1017,6 hPa 0,0 mm 10,5 km/h (2 Bft) SO 236 0 min 0 min 0,000 mm 0,0 UV-I 0 W/m 8,8 C 7,2 C 14,2 km/h (3 Bft) 96,15 %
21/11/2017 02:05 9,9 C 93 % 1017,7 hPa 0,0 mm 8,9 km/h (2 Bft) SO 224 0 min 0 min 0,000 mm 0,0 UV-I 0 W/m 8,8 C 8,2 C 17,7 km/h (3 Bft) 100,00 %
21/11/2017 02:04 9,9 C 93 % 1017,6 hPa 0,0 mm 4,1 km/h (1 Bft) S 184 0 min 0 min 0,000 mm 0,0 UV-I 0 W/m 8,8 C 9,9 C 8,9 km/h (2 Bft) 98,65 %
21/11/2017 02:03 9,9 C 93 % 1017,6 hPa 0,0 mm 8,4 km/h (2 Bft) O-SO 242 0 min 0 min 0,000 mm 0,0 UV-I 0 W/m 8,8 C 8,5 C 14,2 km/h (3 Bft) 100,00 %
21/11/2017 02:02 9,9 C 93 % 1017,6 hPa 0,0 mm 11,1 km/h (2 Bft) SO 223 0 min 0 min 0,000 mm 0,0 UV-I 0 W/m 8,8 C 6,9 C 15,9 km/h (3 Bft) 100,00 %
21/11/2017 02:01 9,9 C 93 % 1017,7 hPa 0,0 mm 17,0 km/h (3 Bft) O-SO 239 0 min 0 min 0,000 mm 0,0 UV-I 0 W/m 8,8 C 4,2 C 23,0 km/h (4 Bft) 100,00 %
21/11/2017 02:00 9,9 C 93 % 1017,7 hPa 0,0 mm 13,0 km/h (3 Bft) O-SO 246 0 min 0 min 0,026 mm 0,0 UV-I 0 W/m 8,8 C 5,9 C 17,7 km/h (3 Bft) 100,00 %
21/11/2017 01:59 9,9 C 93 % 1017,7 hPa 0,0 mm 9,2 km/h (2 Bft) SO 225 0 min 0 min 0,000 mm 0,0 UV-I 0 W/m 8,8 C 8,0 C 19,5 km/h (3 Bft) 100,00 %
21/11/2017 01:58 9,9 C 93 % 1017,7 hPa 0,0 mm 9,6 km/h (2 Bft) SO 214 0 min 0 min 0,000 mm 0,0 UV-I 0 W/m 8,8 C 7,7 C 12,4 km/h (2 Bft) 100,00 %
21/11/2017 01:57 9,9 C 93 % 1017,7 hPa 0,0 mm 10,6 km/h (2 Bft) O-SO 258 0 min 0 min 0,000 mm 0,0 UV-I 0 W/m 8,8 C 7,1 C 15,9 km/h (3 Bft) 100,00 %
21/11/2017 01:56 9,9 C 93 % 1017,7 hPa 0,0 mm 6,3 km/h (2 Bft) S-SO 207 0 min 0 min 0,000 mm 0,0 UV-I 0 W/m 8,8 C 9,9 C 12,4 km/h (2 Bft) 100,00 %
21/11/2017 01:55 9,9 C 93 % 1017,7 hPa 0,0 mm 8,0 km/h (2 Bft) S-SO 194 0 min 0 min 0,000 mm 0,0 UV-I 0 W/m 8,8 C 8,7 C 15,9 km/h (3 Bft) 100,00 %
21/11/2017 01:54 9,9 C 93 % 1017,7 hPa 0,0 mm 3,8 km/h (1 Bft) S-SO 213 0 min 0 min 0,000 mm 0,0 UV-I 0 W/m 8,8 C 9,9 C 5,3 km/h (1 Bft) 100,00 %
21/11/2017 01:53 9,9 C 93 % 1017,7 hPa 0,0 mm 6,9 km/h (2 Bft) SO 220 0 min 0 min 0,000 mm 0,0 UV-I 0 W/m 8,8 C 9,5 C 10,6 km/h (2 Bft) 100,00 %
21/11/2017 01:52 9,9 C 93 % 1017,7 hPa 0,0 mm 6,3 km/h (2 Bft) O-SO 249 0 min 0 min 0,000 mm 0,0 UV-I 0 W/m 8,8 C 9,9 C 10,6 km/h (2 Bft) 100,00 %
21/11/2017 01:51 9,9 C 93 % 1017,7 hPa 0,0 mm 6,5 km/h (2 Bft) S-SO 206 0 min 0 min 0,000 mm 0,0 UV-I 0 W/m 8,8 C 9,9 C 10,6 km/h (2 Bft) 100,00 %
21/11/2017 01:50 9,9 C 93 % 1017,6 hPa 0,0 mm 12,7 km/h (3 Bft) SO 219 0 min 0 min 0,000 mm 0,0 UV-I 0 W/m 8,8 C 6,1 C 19,5 km/h (3 Bft) 100,00 %
21/11/2017 01:49 9,9 C 93 % 1017,7 hPa 0,0 mm 7,5 km/h (2 Bft) O-SO 239 0 min 0 min 0,000 mm 0,0 UV-I 0 W/m 8,8 C 9,1 C 12,4 km/h (2 Bft) 100,00 %
21/11/2017 01:48 9,9 C 93 % 1017,7 hPa 0,0 mm 11,1 km/h (2 Bft) S-SO 203 0 min 0 min 0,000 mm 0,0 UV-I 0 W/m 8,8 C 6,9 C 15,9 km/h (3 Bft) 100,00 %
21/11/2017 01:47 9,9 C 93 % 1017,7 hPa 0,0 mm 9,4 km/h (2 Bft) SO 214 0 min 0 min 0,000 mm 0,0 UV-I 0 W/m 8,8 C 7,8 C 14,2 km/h (3 Bft) 93,33 %
21/11/2017 01:46 9,9 C 93 % 1017,7 hPa 0,0 mm 11,3 km/h (2 Bft) SO 230 0 min 0 min 0,000 mm 0,0 UV-I 0 W/m 8,8 C 6,8 C 17,7 km/h (3 Bft) 96,30 %
21/11/2017 01:45 9,9 C 93 % 1017,6 hPa 0,0 mm 15,4 km/h (3 Bft) SO 229 0 min 0 min 0,000 mm 0,0 UV-I 0 W/m 8,8 C 4,8 C 19,5 km/h (3 Bft) 100,00 %
21/11/2017 01:44 9,9 C 93 % 1017,6 hPa 0,0 mm 13,0 km/h (3 Bft) O-SO 248 0 min 0 min 0,000 mm 0,0 UV-I 0 W/m 8,8 C 5,9 C 19,5 km/h (3 Bft) 100,00 %
21/11/2017 01:43 10,0 C 93 % 1017,6 hPa 0,0 mm 12,0 km/h (2 Bft) SO 228 0 min 0 min 0,000 mm 0,0 UV-I 0 W/m 8,9 C 6,5 C 14,2 km/h (3 Bft) 100,00 %
21/11/2017 01:42 10,0 C 93 % 1017,6 hPa 0,0 mm 9,9 km/h (2 Bft) SO 218 0 min 0 min 0,000 mm 0,0 UV-I 0 W/m 8,9 C 7,7 C 15,9 km/h (3 Bft) 100,00 %
21/11/2017 01:41 9,9 C 93 % 1017,6 hPa 0,0 mm 14,7 km/h (3 Bft) S-SO 213 0 min 0 min 0,000 mm 0,0 UV-I 0 W/m 8,8 C 5,1 C 17,7 km/h (3 Bft) 100,00 %
21/11/2017 01:40 9,9 C 93 % 1017,7 hPa 0,0 mm 10,5 km/h (2 Bft) SO 223 0 min 0 min 0,000 mm 0,0 UV-I 0 W/m 8,8 C 7,2 C 15,9 km/h (3 Bft) 100,00 %
21/11/2017 01:39 9,9 C 93 % 1017,7 hPa 0,0 mm 6,4 km/h (2 Bft) S-SO 193 0 min 0 min 0,000 mm 0,0 UV-I 0 W/m 8,8 C 9,9 C 8,9 km/h (2 Bft) 100,00 %
21/11/2017 01:38 9,9 C 93 % 1017,6 hPa 0,0 mm 7,3 km/h (2 Bft) S-SO 198 0 min 0 min 0,000 mm 0,0 UV-I 0 W/m 8,8 C 9,2 C 10,6 km/h (2 Bft) 100,00 %
21/11/2017 01:37 10,0 C 94 % 1017,6 hPa 0,0 mm 9,3 km/h (2 Bft) S 188 0 min 0 min 0,000 mm 0,0 UV-I 0 W/m 9,1 C 8,0 C 17,7 km/h (3 Bft) 100,00 %
21/11/2017 01:36 10,0 C 94 % 1017,6 hPa 0,0 mm 10,8 km/h (2 Bft) SO 234 0 min 0 min 0,000 mm 0,0 UV-I 0 W/m 9,1 C 7,1 C 19,5 km/h (3 Bft) 95,83 %
21/11/2017 01:35 10,0 C 94 % 1017,6 hPa 0,0 mm 15,2 km/h (3 Bft) O-SO 237 0 min 0 min 0,000 mm 0,0 UV-I 0 W/m 9,1 C 5,1 C 19,5 km/h (3 Bft) 100,00 %
21/11/2017 01:34 9,9 C 94 % 1017,7 hPa 0,0 mm 12,2 km/h (2 Bft) SO 219 0 min 0 min 0,000 mm 0,0 UV-I 0 W/m 9,0 C 6,3 C 19,5 km/h (3 Bft) 96,00 %
21/11/2017 01:33 10,0 C 94 % 1017,7 hPa 0,0 mm 12,9 km/h (3 Bft) SO 229 0 min 0 min 0,000 mm 0,0 UV-I 0 W/m 9,1 C 6,1 C 21,2 km/h (4 Bft) 100,00 %
21/11/2017 01:32 9,9 C 94 % 1017,7 hPa 0,0 mm 10,5 km/h (2 Bft) SO 228 0 min 0 min 0,000 mm 0,0 UV-I 0 W/m 9,0 C 7,2 C 14,2 km/h (3 Bft) 100,00 %
21/11/2017 01:31 10,0 C 94 % 1017,7 hPa 0,0 mm 9,9 km/h (2 Bft) S 188 0 min 0 min 0,000 mm 0,0 UV-I 0 W/m 9,1 C 7,7 C 14,2 km/h (3 Bft) 100,00 %
21/11/2017 01:30 10,0 C 94 % 1017,7 hPa 0,0 mm 8,0 km/h (2 Bft) SO 223 0 min 0 min 0,000 mm 0,0 UV-I 0 W/m 9,1 C 8,9 C 15,9 km/h (3 Bft) 100,00 %
21/11/2017 01:29 10,0 C 94 % 1017,7 hPa 0,0 mm 10,8 km/h (2 Bft) SO 220 0 min 0 min 0,000 mm 0,0 UV-I 0 W/m 9,1 C 7,1 C 14,2 km/h (3 Bft) 100,00 %
21/11/2017 01:28 9,9 C 94 % 1017,6 hPa 0,0 mm 10,9 km/h (2 Bft) O-SO 245 0 min 0 min 0,000 mm 0,0 UV-I 0 W/m 9,0 C 7,0 C 23,0 km/h (4 Bft) 100,00 %
21/11/2017 01:27 10,0 C 93 % 1017,6 hPa 0,0 mm 9,5 km/h (2 Bft) S 185 0 min 0 min 0,000 mm 0,0 UV-I 0 W/m 8,9 C 7,9 C 17,7 km/h (3 Bft) 100,00 %
21/11/2017 01:26 10,0 C 93 % 1017,6 hPa 0,0 mm 9,9 km/h (2 Bft) S-SO 213 0 min 0 min 0,000 mm 0,0 UV-I 0 W/m 8,9 C 7,7 C 14,2 km/h (3 Bft) 96,88 %
21/11/2017 01:25 10,0 C 93 % 1017,6 hPa 0,0 mm 10,3 km/h (2 Bft) SO 227 0 min 0 min 0,000 mm 0,0 UV-I 0 W/m 8,9 C 7,4 C 15,9 km/h (3 Bft) 96,97 %
21/11/2017 01:24 10,0 C 93 % 1017,6 hPa 0,0 mm 14,7 km/h (3 Bft) SO 214 0 min 0 min 0,000 mm 0,0 UV-I 0 W/m 8,9 C 5,3 C 24,8 km/h (4 Bft) 100,00 %
21/11/2017 01:23 10,0 C 93 % 1017,6 hPa 0,0 mm 10,9 km/h (2 Bft) S-SO 203 0 min 0 min 0,000 mm 0,0 UV-I 0 W/m 8,9 C 7,1 C 12,4 km/h (2 Bft) 100,00 %
21/11/2017 01:22 10,0 C 93 % 1018,7 hPa 0,0 mm 14,2 km/h (3 Bft) SO 225 0 min 0 min 0,000 mm 0,0 UV-I 0 W/m 8,9 C 5,5 C 21,2 km/h (4 Bft) 95,65 %
21/11/2017 01:21 10,0 C 93 % 1018,7 hPa 0,0 mm 12,4 km/h (2 Bft) SO 225 0 min 0 min 0,000 mm 0,0 UV-I 0 W/m 8,9 C 6,3 C 19,5 km/h (3 Bft) 100,00 %
21/11/2017 01:20 10,0 C 93 % 1017,6 hPa 0,0 mm 14,3 km/h (3 Bft) S-SO 200 0 min 0 min 0,000 mm 0,0 UV-I 0 W/m 8,9 C 5,4 C 19,5 km/h (3 Bft) 100,00 %
21/11/2017 01:19 10,0 C 93 % 1017,7 hPa 0,0 mm 13,7 km/h (3 Bft) O-SO 250 0 min 0 min 0,000 mm 0,0 UV-I 0 W/m 8,9 C 5,7 C 19,5 km/h (3 Bft) 100,00 %
21/11/2017 01:18 10,0 C 93 % 1017,7 hPa 0,0 mm 10,9 km/h (2 Bft) SO 234 0 min 0 min 0,000 mm 0,0 UV-I 0 W/m 8,9 C 7,1 C 17,7 km/h (3 Bft) 97,62 %
21/11/2017 01:16 10,0 C 93 % 1017,7 hPa 0,0 mm 8,8 km/h (2 Bft) S-SO 202 0 min 0 min 0,000 mm 0,0 UV-I 0 W/m 8,9 C 8,3 C 15,9 km/h (3 Bft) 96,30 %
21/11/2017 01:15 10,0 C 93 % 1017,7 hPa 0,0 mm 12,2 km/h (2 Bft) SO 236 0 min 0 min 0,000 mm 0,0 UV-I 0 W/m 8,9 C 6,4 C 19,5 km/h (3 Bft) 100,00 %
21/11/2017 01:14 10,0 C 93 % 1017,8 hPa 0,0 mm 9,8 km/h (2 Bft) O-SO 243 0 min 0 min 0,000 mm 0,0 UV-I 0 W/m 8,9 C 7,7 C 23,0 km/h (4 Bft) 100,00 %
21/11/2017 01:13 10,0 C 93 % 1017,7 hPa 0,0 mm 12,6 km/h (3 Bft) S-SO 192 0 min 0 min 0,000 mm 0,0 UV-I 0 W/m 8,9 C 6,2 C 21,2 km/h (4 Bft) 100,00 %
21/11/2017 01:12 10,0 C 93 % 1017,7 hPa 0,0 mm 21,9 km/h (4 Bft) SO 232 0 min 0 min 0,000 mm 0,0 UV-I 0 W/m 8,9 C 2,7 C 26,6 km/h (4 Bft) 100,00 %
21/11/2017 01:11 10,0 C 93 % 1017,7 hPa 0,0 mm 14,0 km/h (3 Bft) O-SO 239 0 min 0 min 0,000 mm 0,0 UV-I 0 W/m 8,9 C 5,6 C 23,0 km/h (4 Bft) 95,83 %
21/11/2017 01:10 10,0 C 93 % 1017,7 hPa 0,0 mm 11,0 km/h (2 Bft) S-SE 167 0 min 0 min 0,000 mm 0,0 UV-I 0 W/m 8,9 C 7,0 C 19,5 km/h (3 Bft) 100,00 %
21/11/2017 01:09 10,0 C 93 % 1017,7 hPa 0,0 mm 10,5 km/h (2 Bft) SO 225 0 min 0 min 0,000 mm 0,0 UV-I 0 W/m 8,9 C 7,3 C 21,2 km/h (4 Bft) 100,00 %
21/11/2017 01:08 9,9 C 93 % 1017,7 hPa 0,0 mm 7,9 km/h (2 Bft) SO 217 0 min 0 min 0,000 mm 0,0 UV-I 0 W/m 8,8 C 8,8 C 17,7 km/h (3 Bft) 93,75 %
21/11/2017 01:07 9,9 C 93 % 1017,7 hPa 0,0 mm 5,6 km/h (2 Bft) O-SO 246 0 min 0 min 0,000 mm 0,0 UV-I 0 W/m 8,8 C 9,9 C 12,4 km/h (2 Bft) 96,15 %
21/11/2017 01:06 9,9 C 93 % 1017,8 hPa 0,0 mm 11,1 km/h (2 Bft) SO 223 0 min 0 min 0,000 mm 0,0 UV-I 0 W/m 8,8 C 6,9 C 17,7 km/h (3 Bft) 100,00 %
21/11/2017 01:05 9,9 C 93 % 1017,7 hPa 0,0 mm 12,3 km/h (2 Bft) S-SO 207 0 min 0 min 0,000 mm 0,0 UV-I 0 W/m 8,8 C 6,2 C 17,7 km/h (3 Bft) 100,00 %
21/11/2017 01:04 9,9 C 93 % 1017,8 hPa 0,0 mm 8,9 km/h (2 Bft) SO 232 0 min 0 min 0,000 mm 0,0 UV-I 0 W/m 8,8 C 8,2 C 19,5 km/h (3 Bft) 95,65 %
21/11/2017 01:03 9,9 C 93 % 1017,8 hPa 0,0 mm 11,5 km/h (2 Bft) S-SO 213 0 min 0 min 0,000 mm 0,0 UV-I 0 W/m 8,8 C 6,7 C 19,5 km/h (3 Bft) 100,00 %
21/11/2017 01:02 9,9 C 93 % 1017,8 hPa 0,0 mm 7,9 km/h (2 Bft) O-SO 246 0 min 0 min 0,000 mm 0,0 UV-I 0 W/m 8,8 C 8,8 C 14,2 km/h (3 Bft) 93,10 %
21/11/2017 01:01 9,9 C 93 % 1017,8 hPa 0,0 mm 12,1 km/h (2 Bft) SO 219 0 min 0 min 0,000 mm 0,0 UV-I 0 W/m 8,8 C 6,3 C 17,7 km/h (3 Bft) 100,00 %
21/11/2017 01:00 9,9 C 93 % 1017,8 hPa 0,0 mm 8,9 km/h (2 Bft) O-SO 241 0 min 0 min 0,025 mm 0,0 UV-I 0 W/m 8,8 C 8,2 C 14,2 km/h (3 Bft) 100,00 %
21/11/2017 00:59 9,9 C 93 % 1017,8 hPa 0,0 mm 10,5 km/h (2 Bft) SO 227 0 min 0 min 0,000 mm 0,0 UV-I 0 W/m 8,8 C 7,2 C 14,2 km/h (3 Bft) 100,00 %
21/11/2017 00:58 9,9 C 93 % 1017,8 hPa 0,0 mm 9,0 km/h (2 Bft) S-SO 213 0 min 0 min 0,000 mm 0,0 UV-I 0 W/m 8,8 C 8,1 C 17,7 km/h (3 Bft) 100,00 %
21/11/2017 00:57 9,9 C 93 % 1017,8 hPa 0,0 mm 14,3 km/h (3 Bft) SO 229 0 min 0 min 0,000 mm 0,0 UV-I 0 W/m 8,8 C 5,3 C 23,0 km/h (4 Bft) 100,00 %
21/11/2017 00:56 9,9 C 93 % 1017,8 hPa 0,0 mm 15,4 km/h (3 Bft) O-SO 252 0 min 0 min 0,000 mm 0,0 UV-I 0 W/m 8,8 C 4,8 C 24,8 km/h (4 Bft) 96,15 %
21/11/2017 00:55 9,9 C 93 % 1017,7 hPa 0,0 mm 18,8 km/h (3 Bft) O-SO 239 0 min 0 min 0,000 mm 0,0 UV-I 0 W/m 8,8 C 3,6 C 30,1 km/h (5 Bft) 96,55 %
21/11/2017 00:54 9,9 C 93 % 1017,7 hPa 0,0 mm 11,6 km/h (2 Bft) O-SO 252 0 min 0 min 0,000 mm 0,0 UV-I 0 W/m 8,8 C 6,6 C 17,7 km/h (3 Bft) 100,00 %
21/11/2017 00:53 9,9 C 93 % 1017,7 hPa 0,0 mm 10,2 km/h (2 Bft) O-SO 250 0 min 0 min 0,000 mm 0,0 UV-I 0 W/m 8,8 C 7,4 C 17,7 km/h (3 Bft) 96,15 %
21/11/2017 00:52 9,9 C 93 % 1017,8 hPa 0,0 mm 9,3 km/h (2 Bft) S-SO 212 0 min 0 min 0,000 mm 0,0 UV-I 0 W/m 8,8 C 7,9 C 21,2 km/h (4 Bft) 100,00 %
21/11/2017 00:51 9,9 C 93 % 1017,8 hPa 0,0 mm 10,4 km/h (2 Bft) SO 220 0 min 0 min 0,000 mm 0,0 UV-I 0 W/m 8,8 C 7,3 C 17,7 km/h (3 Bft) 92,86 %
21/11/2017 00:50 9,9 C 93 % 1017,7 hPa 0,0 mm 8,4 km/h (2 Bft) O-SO 254 0 min 0 min 0,000 mm 0,0 UV-I 0 W/m 8,8 C 8,5 C 14,2 km/h (3 Bft) 97,67 %
21/11/2017 00:49 9,9 C 93 % 1017,8 hPa 0,0 mm 11,1 km/h (2 Bft) S-SO 213 0 min 0 min 0,000 mm 0,0 UV-I 0 W/m 8,8 C 6,9 C 15,9 km/h (3 Bft) 100,00 %
21/11/2017 00:48 9,9 C 93 % 1017,7 hPa 0,0 mm 11,5 km/h (2 Bft) O-SO 250 0 min 0 min 0,000 mm 0,0 UV-I 0 W/m 8,8 C 6,7 C 21,2 km/h (4 Bft) 91,67 %
21/11/2017 00:47 9,9 C 93 % 1017,7 hPa 0,0 mm 11,3 km/h (2 Bft) O 265 0 min 0 min 0,000 mm 0,0 UV-I 0 W/m 8,8 C 6,8 C 19,5 km/h (3 Bft) 96,30 %
21/11/2017 00:46 9,9 C 93 % 1017,7 hPa 0,0 mm 7,2 km/h (2 Bft) S-SO 209 0 min 0 min 0,000 mm 0,0 UV-I 0 W/m 8,8 C 9,3 C 12,4 km/h (2 Bft) 95,65 %
21/11/2017 00:45 9,9 C 93 % 1017,7 hPa 0,0 mm 14,8 km/h (3 Bft) O 261 0 min 0 min 0,000 mm 0,0 UV-I 0 W/m 8,8 C 5,1 C 19,5 km/h (3 Bft) 100,00 %
21/11/2017 00:44 9,9 C 93 % 1017,7 hPa 0,0 mm 10,6 km/h (2 Bft) O 281 0 min 0 min 0,000 mm 0,0 UV-I 0 W/m 8,8 C 7,1 C 15,9 km/h (3 Bft) 95,65 %
21/11/2017 00:43 9,9 C 93 % 1017,7 hPa 0,0 mm 12,4 km/h (2 Bft) SO 227 0 min 0 min 0,000 mm 0,0 UV-I 0 W/m 8,8 C 6,2 C 24,8 km/h (4 Bft) 100,00 %
21/11/2017 00:42 9,9 C 93 % 1017,7 hPa 0,0 mm 7,9 km/h (2 Bft) S 189 0 min 0 min 0,000 mm 0,0 UV-I 0 W/m 8,8 C 8,8 C 15,9 km/h (3 Bft) 96,00 %
21/11/2017 00:41 9,9 C 93 % 1017,7 hPa 0,0 mm 10,4 km/h (2 Bft) S-SO 201 0 min 0 min 0,000 mm 0,0 UV-I 0 W/m 8,8 C 7,3 C 15,9 km/h (3 Bft) 96,55 %
21/11/2017 00:40 9,9 C 93 % 1017,8 hPa 0,0 mm 8,1 km/h (2 Bft) SO 221 0 min 0 min 0,000 mm 0,0 UV-I 0 W/m 8,8 C 8,7 C 10,6 km/h (2 Bft) 100,00 %
21/11/2017 00:39 9,9 C 93 % 1017,8 hPa 0,0 mm 8,3 km/h (2 Bft) O 279 0 min 0 min 0,000 mm 0,0 UV-I 0 W/m 8,8 C 8,5 C 14,2 km/h (3 Bft) 96,15 %
21/11/2017 00:38 9,9 C 93 % 1017,8 hPa 0,0 mm 10,6 km/h (2 Bft) SO 230 0 min 0 min 0,000 mm 0,0 UV-I 0 W/m 8,8 C 7,1 C 14,2 km/h (3 Bft) 100,00 %
21/11/2017 00:37 9,9 C 93 % 1017,8 hPa 0,0 mm 4,1 km/h (1 Bft) O-SO 242 0 min 0 min 0,000 mm 0,0 UV-I 0 W/m 8,8 C 9,9 C 7,1 km/h (2 Bft) 96,00 %
21/11/2017 00:36 9,9 C 93 % 1017,8 hPa 0,0 mm 12,5 km/h (2 Bft) S 190 0 min 0 min 0,000 mm 0,0 UV-I 0 W/m 8,8 C 6,1 C 17,7 km/h (3 Bft) 100,00 %
21/11/2017 00:35 9,9 C 93 % 1017,8 hPa 0,0 mm 9,5 km/h (2 Bft) SO 232 0 min 0 min 0,000 mm 0,0 UV-I 0 W/m 8,8 C 7,8 C 14,2 km/h (3 Bft) 96,97 %
21/11/2017 00:34 9,9 C 93 % 1017,8 hPa 0,0 mm 8,5 km/h (2 Bft) S 178 0 min 0 min 0,000 mm 0,0 UV-I 0 W/m 8,8 C 8,4 C 12,4 km/h (2 Bft) 100,00 %
21/11/2017 00:33 9,9 C 93 % 1017,7 hPa 0,0 mm 11,1 km/h (2 Bft) O 259 0 min 0 min 0,000 mm 0,0 UV-I 0 W/m 8,8 C 6,9 C 15,9 km/h (3 Bft) 96,43 %
21/11/2017 00:32 9,9 C 93 % 1017,7 hPa 0,0 mm 11,1 km/h (2 Bft) SO 217 0 min 0 min 0,000 mm 0,0 UV-I 0 W/m 8,8 C 6,9 C 21,2 km/h (4 Bft) 100,00 %
21/11/2017 00:31 9,9 C 93 % 1017,7 hPa 0,0 mm 5,8 km/h (2 Bft) S 184 0 min 0 min 0,000 mm 0,0 UV-I 0 W/m 8,8 C 9,9 C 8,9 km/h (2 Bft) 96,30 %
21/11/2017 00:30 9,9 C 93 % 1017,7 hPa 0,0 mm 6,3 km/h (2 Bft) O-SO 237 0 min 0 min 0,000 mm 0,0 UV-I 0 W/m 8,8 C 9,9 C 10,6 km/h (2 Bft) 95,83 %
21/11/2017 00:29 9,9 C 93 % 1017,7 hPa 0,0 mm 8,1 km/h (2 Bft) S 190 0 min 0 min 0,000 mm 0,0 UV-I 0 W/m 8,8 C 8,7 C 14,2 km/h (3 Bft) 100,00 %
21/11/2017 00:28 9,9 C 93 % 1017,6 hPa 0,0 mm 11,8 km/h (2 Bft) SO 216 0 min 0 min 0,000 mm 0,0 UV-I 0 W/m 8,8 C 6,5 C 24,8 km/h (4 Bft) 84,62 %
21/11/2017 00:27 9,9 C 93 % 1017,6 hPa 0,0 mm 8,4 km/h (2 Bft) O-SO 241 0 min 0 min 0,000 mm 0,0 UV-I 0 W/m 8,8 C 8,5 C 17,7 km/h (3 Bft) 100,00 %
21/11/2017 00:26 9,9 C 93 % 1017,6 hPa 0,0 mm 14,0 km/h (3 Bft) SO 221 0 min 0 min 0,000 mm 0,0 UV-I 0 W/m 8,8 C 5,4 C 21,2 km/h (4 Bft) 96,00 %
21/11/2017 00:25 9,9 C 93 % 1017,7 hPa 0,0 mm 12,3 km/h (2 Bft) O-SO 239 0 min 0 min 0,000 mm 0,0 UV-I 0 W/m 8,8 C 6,2 C 15,9 km/h (3 Bft) 100,00 %
21/11/2017 00:24 9,9 C 93 % 1017,7 hPa 0,0 mm 13,1 km/h (3 Bft) SO 222 0 min 0 min 0,000 mm 0,0 UV-I 0 W/m 8,8 C 5,9 C 19,5 km/h (3 Bft) 91,30 %
21/11/2017 00:23 9,9 C 93 % 1017,7 hPa 0,0 mm 7,4 km/h (2 Bft) SO 227 0 min 0 min 0,000 mm 0,0 UV-I 0 W/m 8,8 C 9,2 C 12,4 km/h (2 Bft) 100,00 %
21/11/2017 00:22 9,9 C 93 % 1017,7 hPa 0,0 mm 11,7 km/h (2 Bft) O-SO 248 0 min 0 min 0,000 mm 0,0 UV-I 0 W/m 8,8 C 6,6 C 19,5 km/h (3 Bft) 95,83 %
21/11/2017 00:21 9,9 C 93 % 1017,7 hPa 0,0 mm 10,5 km/h (2 Bft) SO 218 0 min 0 min 0,000 mm 0,0 UV-I 0 W/m 8,8 C 7,2 C 15,9 km/h (3 Bft) 96,30 %
21/11/2017 00:20 9,9 C 93 % 1017,7 hPa 0,0 mm 9,0 km/h (2 Bft) S-SO 207 0 min 0 min 0,000 mm 0,0 UV-I 0 W/m 8,8 C 8,1 C 15,9 km/h (3 Bft) 100,00 %
21/11/2017 00:19 9,9 C 93 % 1017,7 hPa 0,0 mm 8,0 km/h (2 Bft) S-SO 193 0 min 0 min 0,000 mm 0,0 UV-I 0 W/m 8,8 C 8,7 C 14,2 km/h (3 Bft) 95,83 %
21/11/2017 00:18 9,9 C 93 % 1017,7 hPa 0,0 mm 6,2 km/h (2 Bft) O-SO 239 0 min 0 min 0,000 mm 0,0 UV-I 0 W/m 8,8 C 9,9 C 10,6 km/h (2 Bft) 100,00 %
21/11/2017 00:17 9,9 C 93 % 1017,7 hPa 0,0 mm 8,7 km/h (2 Bft) SO 219 0 min 0 min 0,000 mm 0,0 UV-I 0 W/m 8,8 C 8,3 C 14,2 km/h (3 Bft) 100,00 %
21/11/2017 00:16 9,9 C 93 % 1017,7 hPa 0,0 mm 8,7 km/h (2 Bft) SO 219 0 min 0 min 0,000 mm 0,0 UV-I 0 W/m 8,8 C 8,3 C 14,2 km/h (3 Bft) 100,00 %
21/11/2017 00:15 9,9 C 93 % 1017,6 hPa 0,0 mm 10,4 km/h (2 Bft) SO 217 0 min 0 min 0,000 mm 0,0 UV-I 0 W/m 8,8 C 7,3 C 19,5 km/h (3 Bft) 100,00 %
21/11/2017 00:14 9,9 C 93 % 1017,6 hPa 0,0 mm 12,7 km/h (3 Bft) SO 230 0 min 0 min 0,000 mm 0,0 UV-I 0 W/m 8,8 C 6,1 C 21,2 km/h (4 Bft) 100,00 %
21/11/2017 00:13 9,9 C 93 % 1017,6 hPa 0,0 mm 15,7 km/h (3 Bft) O-SO 242 0 min 0 min 0,000 mm 0,0 UV-I 0 W/m 8,8 C 4,7 C 23,0 km/h (4 Bft) 100,00 %
21/11/2017 00:12 9,9 C 93 % 1017,7 hPa 0,0 mm 11,0 km/h (2 Bft) SO 234 0 min 0 min 0,000 mm 0,0 UV-I 0 W/m 8,8 C 6,9 C 15,9 km/h (3 Bft) 100,00 %
21/11/2017 00:11 9,9 C 93 % 1017,6 hPa 0,0 mm 11,2 km/h (2 Bft) SO 233 0 min 0 min 0,000 mm 0,0 UV-I 0 W/m 8,8 C 6,8 C 17,7 km/h (3 Bft) 100,00 %
21/11/2017 00:10 9,9 C 93 % 1017,7 hPa 0,0 mm 12,4 km/h (2 Bft) O-SO 244 0 min 0 min 0,000 mm 0,0 UV-I 0 W/m 8,8 C 6,2 C 17,7 km/h (3 Bft) 100,00 %
21/11/2017 00:09 9,9 C 93 % 1017,6 hPa 0,0 mm 12,7 km/h (3 Bft) O-SO 250 0 min 0 min 0,000 mm 0,0 UV-I 0 W/m 8,8 C 6,1 C 23,0 km/h (4 Bft) 100,00 %
21/11/2017 00:08 9,9 C 93 % 1017,7 hPa 0,0 mm 12,4 km/h (2 Bft) SO 229 0 min 0 min 0,000 mm 0,0 UV-I 0 W/m 8,8 C 6,2 C 30,1 km/h (5 Bft) 100,00 %
21/11/2017 00:07 9,9 C 93 % 1017,7 hPa 0,0 mm 7,5 km/h (2 Bft) S 186 0 min 0 min 0,000 mm 0,0 UV-I 0 W/m 8,8 C 9,1 C 12,4 km/h (2 Bft) 100,00 %
21/11/2017 00:06 9,9 C 93 % 1017,6 hPa 0,0 mm 8,0 km/h (2 Bft) SO 215 0 min 0 min 0,000 mm 0,0 UV-I 0 W/m 8,8 C 8,7 C 14,2 km/h (3 Bft) 100,00 %
21/11/2017 00:05 9,9 C 93 % 1017,7 hPa 0,0 mm 12,0 km/h (2 Bft) S-SO 200 0 min 0 min 0,000 mm 0,0 UV-I 0 W/m 8,8 C 6,4 C 21,2 km/h (4 Bft) 100,00 %
21/11/2017 00:03 9,9 C 93 % 1017,6 hPa 0,0 mm 6,8 km/h (2 Bft) S-SO 210 0 min 0 min 0,000 mm 0,0 UV-I 0 W/m 8,8 C 9,6 C 23,0 km/h (4 Bft) 100,00 %
21/11/2017 00:02 9,9 C 93 % 1017,6 hPa 0,0 mm 13,1 km/h (3 Bft) S-SO 209 0 min 0 min 0,000 mm 0,0 UV-I 0 W/m 8,8 C 5,9 C 23,0 km/h (4 Bft) 100,00 %
21/11/2017 00:01 9,9 C 93 % 1017,7 hPa 0,0 mm 11,0 km/h (2 Bft) S-SO 209 0 min 0 min 0,000 mm 0,0 UV-I 0 W/m 8,8 C 6,9 C 19,5 km/h (3 Bft) 100,00 %
21/11/2017 00:00 9,9 C 93 % 1017,6 hPa 0,0 mm 10,6 km/h (2 Bft) O-SO 252 0 min 0 min 0,000 mm 0,0 UV-I 0 W/m 8,8 C 7,1 C 15,9 km/h (3 Bft) 100,00 %
_ Min-Heure 03:03 00:00 02:16 - 01:54 - - - - - - - 03:03 01:12 01:54 00:28
Minimum _ 9,6 C 93 % 1017,5 hPa - 3,8 km/h (1 Bft) - - - - - - - 8,5 C 2,7 C 5,3 km/h (1 Bft) 84,62 %
_ Max-Heure 01:09 01:28 01:21 00:00 01:12 - - 00:00 00:00 02:00 00:00 00:00 01:29 01:39 00:08 00:00
Maximum _ 10,0 C 94 % 1018,7 hPa 0,0 mm 21,9 km/h
SO (4 Bft)
- - 0 min 0 min 0,026 mm 0,0 UV-I 0 W/m 9,1 C 9,9 C 30,1 km/h
O-NO (5 Bft)
100,00 %
Moyenne _ 9,9 C 93 % 1017,7 hPa #0,0 mm 10,7 km/h (2 Bft) SO - #0 min. #0 min. #0,076 mm 0,0 UV-I 0 W/m 8,8 C 7,2 C 17,5 km/h (3 Bft) 98,29 %
Grandfresnoy - Oise - Picardie